Time,TemperatureF,DewpointF,PressureIn,WindDirection,WindDirectionDegrees,WindSpeedMPH,WindSpeedGustMPH,Humidity,HourlyPrecipIn,Conditions,Clouds,dailyrainin,SoftwareType,DateUTC
2013-06-07 00:00:00,54.0,52.0,-100.00,North,-999,-999.0,-999.0,92,-99.99,,,-99.99,,2013-06-06 23:00:00,
2013-06-07 00:33:00,54.0,52.0,-100.00,North,-999,-999.0,-999.0,92,-99.99,,,-99.99,,2013-06-06 23:33:00,
2013-06-07 00:42:00,54.0,52.0,-100.00,North,-999,-999.0,-999.0,92,-99.99,,,-99.99,,2013-06-06 23:42:00,
2013-06-07 00:51:00,54.0,52.0,-100.00,North,-999,-999.0,-999.0,92,-99.99,,,-99.99,,2013-06-06 23:51:00,
2013-06-07 01:00:00,56.0,52.0,-100.00,North,-999,-999.0,-999.0,87,-99.99,,,-99.99,,2013-06-07 00:00:00,
2013-06-07 01:32:00,56.0,52.0,-100.00,North,-999,-999.0,-999.0,87,-99.99,,,-99.99,,2013-06-07 00:32:00,
2013-06-07 01:41:00,56.0,52.0,-100.00,North,-999,-999.0,-999.0,87,-99.99,,,-99.99,,2013-06-07 00:41:00,
2013-06-07 01:52:00,56.0,52.0,-100.00,North,-999,-999.0,-999.0,87,-99.99,,,-99.99,,2013-06-07 00:52:00,
2013-06-07 02:00:00,55.0,52.0,-100.00,North,-999,-999.0,-999.0,89,-99.99,,,-99.99,,2013-06-07 01:00:00,
2013-06-07 02:32:00,55.0,52.0,-100.00,North,-999,-999.0,-999.0,89,-99.99,,,-99.99,,2013-06-07 01:32:00,
2013-06-07 02:42:00,55.0,52.0,-100.00,North,-999,-999.0,-999.0,89,-99.99,,,-99.99,,2013-06-07 01:42:00,
2013-06-07 02:52:00,55.0,52.0,-100.00,North,-999,-999.0,-999.0,89,-99.99,,,-99.99,,2013-06-07 01:52:00,
2013-06-07 03:00:00,55.0,52.0,-100.00,North,-999,-999.0,-999.0,89,-99.99,,,-99.99,,2013-06-07 02:00:00,
2013-06-07 03:41:00,55.0,52.0,-100.00,North,-999,-999.0,-999.0,89,-99.99,,,-99.99,,2013-06-07 02:41:00,
2013-06-07 03:52:00,55.0,52.0,-100.00,North,-999,-999.0,-999.0,89,-99.99,,,-99.99,,2013-06-07 02:52:00,
2013-06-07 04:00:00,52.0,50.0,-100.00,North,-999,-999.0,-999.0,92,-99.99,,,-99.99,,2013-06-07 03:00:00,
2013-06-07 04:43:00,52.0,50.0,-100.00,North,-999,-999.0,-999.0,92,-99.99,,,-99.99,,2013-06-07 03:43:00,
2013-06-07 04:52:00,52.0,50.0,-100.00,North,-999,-999.0,-999.0,92,-99.99,,,-99.99,,2013-06-07 03:52:00,
2013-06-07 05:00:00,53.0,52.0,-100.00,North,-999,-999.0,-999.0,94,-99.99,,,-99.99,,2013-06-07 04:00:00,
2013-06-07 05:33:00,53.0,52.0,-100.00,North,-999,-999.0,-999.0,94,-99.99,,,-99.99,,2013-06-07 04:33:00,
2013-06-07 05:42:00,53.0,52.0,-100.00,North,-999,-999.0,-999.0,94,-99.99,,,-99.99,,2013-06-07 04:42:00,
2013-06-07 05:53:00,53.0,52.0,-100.00,North,-999,-999.0,-999.0,94,-99.99,,,-99.99,,2013-06-07 04:53:00,
2013-06-07 06:00:00,54.0,52.0,-100.00,North,-999,-999.0,-999.0,92,-99.99,,,-99.99,,2013-06-07 05:00:00,
2013-06-07 06:42:00,54.0,52.0,-100.00,North,-999,-999.0,-999.0,92,-99.99,,,-99.99,,2013-06-07 05:42:00,
2013-06-07 06:52:00,54.0,52.0,-100.00,North,-999,-999.0,-999.0,92,-99.99,,,-99.99,,2013-06-07 05:52:00,
2013-06-07 07:00:00,55.0,52.0,-100.00,North,-999,-999.0,-999.0,89,-99.99,,,-99.99,,2013-06-07 06:00:00,
2013-06-07 07:41:00,55.0,52.0,-100.00,North,-999,-999.0,-999.0,89,-99.99,,,-99.99,,2013-06-07 06:41:00,
2013-06-07 07:52:00,55.0,52.0,-100.00,North,-999,-999.0,-999.0,89,-99.99,,,-99.99,,2013-06-07 06:52:00,
2013-06-07 08:00:00,57.0,53.0,-100.00,North,-999,-999.0,-999.0,87,-99.99,,,-99.99,,2013-06-07 07:00:00,
2013-06-07 08:42:00,57.0,53.0,-100.00,North,-999,-999.0,-999.0,87,-99.99,,,-99.99,,2013-06-07 07:42:00,
2013-06-07 08:52:00,57.0,53.0,-100.00,North,-999,-999.0,-999.0,87,-99.99,,,-99.99,,2013-06-07 07:52:00,
2013-06-07 09:00:00,57.0,53.0,-100.00,North,-999,-999.0,-999.0,86,-99.99,,,-99.99,,2013-06-07 08:00:00,
2013-06-07 09:42:00,57.0,53.0,-100.00,North,-999,-999.0,-999.0,86,-99.99,,,-99.99,,2013-06-07 08:42:00,
2013-06-07 09:51:00,57.0,53.0,-100.00,North,-999,-999.0,-999.0,86,-99.99,,,-99.99,,2013-06-07 08:51:00,
2013-06-07 10:00:00,55.0,47.0,-100.00,North,-999,-999.0,-999.0,75,-99.99,,,-99.99,,2013-06-07 09:00:00,
2013-06-07 10:43:00,55.0,47.0,-100.00,North,-999,-999.0,-999.0,75,-99.99,,,-99.99,,2013-06-07 09:43:00,
2013-06-07 10:53:00,55.0,47.0,-100.00,North,-999,-999.0,-999.0,75,-99.99,,,-99.99,,2013-06-07 09:53:00,
2013-06-07 11:00:00,55.0,49.0,-100.00,North,-999,-999.0,-999.0,79,-99.99,,,-99.99,,2013-06-07 10:00:00,
2013-06-07 11:42:00,55.0,49.0,-100.00,North,-999,-999.0,-999.0,79,-99.99,,,-99.99,,2013-06-07 10:42:00,
2013-06-07 11:52:00,55.0,49.0,-100.00,North,-999,-999.0,-999.0,79,-99.99,,,-99.99,,2013-06-07 10:52:00,
2013-06-07 12:00:00,64.0,48.0,-100.00,North,-999,-999.0,-999.0,55,-99.99,,,-99.99,,2013-06-07 11:00:00,
2013-06-07 12:32:00,64.0,48.0,-100.00,North,-999,-999.0,-999.0,55,-99.99,,,-99.99,,2013-06-07 11:32:00,
2013-06-07 12:42:00,64.0,48.0,-100.00,North,-999,-999.0,-999.0,55,-99.99,,,-99.99,,2013-06-07 11:42:00,
2013-06-07 12:52:00,64.0,48.0,-100.00,North,-999,-999.0,-999.0,55,-99.99,,,-99.99,,2013-06-07 11:52:00,
2013-06-07 13:00:00,64.0,50.0,-100.00,North,-999,-999.0,-999.0,61,-99.99,,,-99.99,,2013-06-07 12:00:00,
2013-06-07 13:41:00,64.0,50.0,-100.00,North,-999,-999.0,-999.0,61,-99.99,,,-99.99,,2013-06-07 12:41:00,
2013-06-07 13:52:00,64.0,50.0,-100.00,North,-999,-999.0,-999.0,61,-99.99,,,-99.99,,2013-06-07 12:52:00,
2013-06-07 14:00:00,64.0,51.0,-100.00,North,-999,-999.0,-999.0,63,-99.99,,,-99.99,,2013-06-07 13:00:00,
2013-06-07 14:41:00,64.0,51.0,-100.00,North,-999,-999.0,-999.0,63,-99.99,,,-99.99,,2013-06-07 13:41:00,
2013-06-07 14:52:00,64.0,51.0,-100.00,North,-999,-999.0,-999.0,63,-99.99,,,-99.99,,2013-06-07 13:52:00,
2013-06-07 15:00:00,54.0,50.0,-100.00,North,-999,-999.0,-999.0,86,-99.99,,,-99.99,,2013-06-07 14:00:00,
2013-06-07 15:41:00,54.0,50.0,-100.00,North,-999,-999.0,-999.0,86,-99.99,,,-99.99,,2013-06-07 14:41:00,
2013-06-07 15:52:00,54.0,50.0,-100.00,North,-999,-999.0,-999.0,86,-99.99,,,-99.99,,2013-06-07 14:52:00,
2013-06-07 16:00:00,54.0,50.0,-100.00,North,-999,-999.0,-999.0,87,-99.99,,,-99.99,,2013-06-07 15:00:00,
2013-06-07 16:33:00,54.0,50.0,-100.00,North,-999,-999.0,-999.0,87,-99.99,,,-99.99,,2013-06-07 15:33:00,
2013-06-07 16:43:00,54.0,50.0,-100.00,North,-999,-999.0,-999.0,87,-99.99,,,-99.99,,2013-06-07 15:43:00,
2013-06-07 16:53:00,54.0,50.0,-100.00,North,-999,-999.0,-999.0,87,-99.99,,,-99.99,,2013-06-07 15:53:00,
2013-06-07 17:00:00,60.0,52.0,-100.00,North,-999,-999.0,-999.0,73,-99.99,,,-99.99,,2013-06-07 16:00:00,
2013-06-07 17:42:00,60.0,52.0,-100.00,North,-999,-999.0,-999.0,73,-99.99,,,-99.99,,2013-06-07 16:42:00,
2013-06-07 17:52:00,60.0,52.0,-100.00,North,-999,-999.0,-999.0,73,-99.99,,,-99.99,,2013-06-07 16:52:00,